This is the latest recevied weather packets stored in our database for station/object K5SVV. If no packets are shown the sender has not sent any weather packets the latest 10 day(s).
| Time | Temp. | Humidity | Pressure | Rain* | Wind** | Luminosity | Snow |
|---|---|---|---|---|---|---|---|
| 1778173088 | 18.89° C | 67% | 1017.7 hPa | 0 mm | - | 817 W/m² | - |
| 1778172784 | 18.89° C | 70% | 1017.7 hPa | 0 mm | - | 780 W/m² | - |
| 1778172480 | 18.89° C | 68% | 1018 hPa | 0 mm | - | 524 W/m² | - |
| 1778172177 | 18.33° C | 68% | 1018.1 hPa | 0 mm | - | 563 W/m² | - |
| 1778171874 | 18.33° C | 70% | 1018.2 hPa | 0 mm | - | 669 W/m² | - |
| 1778171572 | 18.33° C | 70% | 1018.4 hPa | 0 mm | - | 733 W/m² | - |
| 1778171268 | 18.33° C | 71% | 1018.6 hPa | 0 mm | - | 538 W/m² | - |
| 1778170964 | 18.33° C | 69% | 1018.4 hPa | 0 mm | - | 627 W/m² | - |
| 1778170661 | 17.78° C | 70% | 1018.3 hPa | 0 mm | - | 765 W/m² | - |
| 1778170358 | 18.33° C | 71% | 1018.3 hPa | 0 mm | - | 553 W/m² | - |
| 1778170053 | 17.78° C | 70% | 1018.4 hPa | 0 mm | - | 588 W/m² | - |
| 1778169750 | 17.78° C | 73% | 1018.3 hPa | 0 mm | - | 282 W/m² | - |
| 1778169446 | 17.78° C | 71% | 1018.2 hPa | 0 mm | - | 670 W/m² | - |
| 1778169142 | 17.78° C | 71% | 1018.3 hPa | 0 mm | - | 868 W/m² | - |
| 1778168839 | 17.22° C | 72% | 1018.3 hPa | 0 mm | - | 730 W/m² | - |
| 1778168536 | 17.22° C | 73% | 1018 hPa | 0 mm | - | 488 W/m² | - |
| 1778168233 | 17.22° C | 74% | 1018.3 hPa | 0 mm | - | 229 W/m² | - |
| 1778167929 | 16.67° C | 74% | 1018.5 hPa | 0 mm | - | 673 W/m² | - |
| 1778167626 | 16.67° C | 76% | 1018.4 hPa | 0 mm | - | 513 W/m² | - |
| 1778167322 | 16.67° C | 75% | 1018.3 hPa | 0 mm | - | 652 W/m² | - |
| 1778167018 | 16.67° C | 76% | 1018.3 hPa | 0 mm | - | 681 W/m² | - |
| 1778166715 | 16.11° C | 76% | 1018.6 hPa | 0 mm | - | 754 W/m² | - |
| 1778166412 | 16.11° C | 75% | 1018.9 hPa | 0 mm | - | 724 W/m² | - |
| 1778166109 | 16.11° C | 76% | 1018.8 hPa | 0 mm | - | 701 W/m² | - |
| 1778165803 | 15.56° C | 77% | 1018.5 hPa | 0 mm | - | 698 W/m² | - |
* Rain latest hour (hover to see other rain measurements)
** Current wind speed in m/s (hover to see current wind gust speed)